Regional Weather Roundup
Issued by NWS Cleveland, OH

Home | Current Version | Previous Version | Text Only | Print | Product List | Glossary Off
Versions: 1 2 3 4 5 6 7 8 9 10 11 12 13 14 15 16 17 18 19 20 21 22 23 24 25 26 27 28 29 30 31 32 33 34 35 36 37 38 39 40 41 42 43 44 45 46 47 48 49 50

000
ASUS41 KCLE 272312
RWRCLE
OHIO REGIONAL WEATHER ROUNDUP
NATIONAL WEATHER SERVICE WILMINGTON, OH
700 PM EDT TUE JUN 27 2017

NOTE: "FAIR" INDICATES FEW OR NO CLOUDS BELOW 12,000 FEET WITH NO
SIGNIFICANT WEATHER AND/OR OBSTRUCTIONS TO VISIBILITY.

OHZ001>008-015>018-024>027-034-035-043-044-280000-
   NORTHWEST OHIO

CITY           SKY/WX    TMP DP  RH WIND       PRES   REMARKS
DEFIANCE       FAIR      71  46  40 W6        30.05F
FINDLAY        CLOUDY    72  46  39 W13       30.06F
TOLEDO EXPRESS FAIR      72  45  37 W13       30.03F
TOLEDO EXEC    FAIR      71  46  40 W10       30.05F
LIMA           PTSUNNY   71  47  42 W10       30.08F
$$

OHZ009>014-019>023-028>033-038-089-280000-
   NORTHEAST OHIO

CITY           SKY/WX    TMP DP  RH WIND       PRES   REMARKS
CLE-HOPKINS    FAIR      71  42  35 W9G17     30.08F
CLE-LAKEFRONT  FAIR      68  43  40 W10       30.05F
CUY CO. ARPT   MOSUNNY   70  39  32 W9        30.07F
LORAIN-ELYRIA  FAIR      69  40  34 SW6       30.07F
ASHTABULA      FAIR      66  44  45 W12       30.07S
AKRON-CANTON   FAIR      69  44  40 W7        30.08S
WOOSTER        FAIR      68  42  38 NW7       30.09S
MANSFIELD      FAIR      69  43  38 W5        30.09F
YOUNGSTOWN     FAIR      67  43  41 W10       30.07S
$$

OHZ042-051>053-060>062-070>072-077>081-280000-
  SOUTHWEST OHIO

CITY           SKY/WX    TMP DP  RH WIND       PRES   REMARKS
CINC-COVINGTON PTSUNNY   73  48  41 W9        30.10F
CINC-LUNKEN    PTSUNNY   74  50  42 W3        30.10S
HAMILTON       FAIR      70  50  49 NW5       30.10F
DAYTON         FAIR      70  42  36 W6        30.11S
WRIGHT-PAT AFB FAIR      71  42  34 NW6       30.09F
DAYTON GENERAL FAIR      72  45  37 W8        30.09F
WILMINGTON     FAIR      69  48  47 W8        30.10S
$$

OHZ036-037-039>041-045>050-054>059-063>069-073>076-082>088-280000-
  CENTRAL AND SOUTHEAST OHIO

CITY           SKY/WX    TMP DP  RH WIND       PRES   REMARKS
COLUMBUS       FAIR      69  45  41 W7        30.08F
OSU AIRPORT    FAIR      68  45  43 NW10      30.09S
BOLTON FIELD   MOSUNNY   72  45  37 NW7       30.09F
RICKENBACK AFB FAIR      71  44  38 W9        30.08S
NEWARK         FAIR      72  42  34 NW9       30.08S
MARION         FAIR      69  41  36 W6        30.09S
LANCASTER      FAIR      70  47  43 NW6       30.09S
ZANESVILLE     FAIR      69  46  43 W5        30.08S
NEW PHILLY     PTSUNNY   70  44  39 NW7       30.09R
$$




USA.gov is the U.S. government's official web portal to all federal, state and local government web resources and services.